Temp
62 62 62 62 62 61 61 61 61 62 62 62 62 62 62 62 61 74 82 87 88 73 73 96 93 96 98 95 99 99 82 80 85 87 87 96 88 94 100 75 80 93 80 85 94
62 62 62 62 61 61 61 61 61 61 61 62 62 62 62 61 73 83 85 78 77 75 92 93 92 95 91 93 95 89 82 86 95 95 92 95 94 96 94 93 92 91 94 95 95
61 62 62 61 61 61 61 61 61 61 61 61 62 61 61 64 78 90 76 77 77 80 94 96 99 95 89 94 92 91 82 93 94 95 96 94 94 98 93 88 84 68 89 92 93
61 61 61 61 60 60 61 61 61 61 61 61 61 61 62 74 76 92 77 78 79 91 95 96 94 89 87 87 94 85 92 93 94 95 93 91 97 93 95 94 92 82 84 93 92
60 60 60 60 60 60 60 60 60 61 61 61 61 62 67 75 85 87 77 80 92 94 92 94 91 91 86 91 92 88 90 93 95 95 94 96 93 93 95 100 101 94 94 93 93
60 60 60 60 60 60 60 60 59 59 60 61 62 61 75 78 100 96 96 94 97 96 97 98 95 95 90 90 88 92 92 92 94 93 94 91 92 94 96 100 98 98 93 94 94
59 59 59 59 59 60 59 59 58 59 60 61 62 73 81 88 103 101 100 97 100 100 96 100 98 93 94 89 95 92 85 89 91 92 91 94 86 88 98 99 96 96 97 93 95
59 59 59 59 59 59 59 58 58 60 61 62 63 76 83 102 105 101 102 100 103 103 99 100 100 94 92 96 91 86 86 79 89 91 92 89 78 92 98 96 94 96 91 95 96
59 58 58 59 59 59 58 58 59 63 62 64 72 79 84 90 96 101 102 97 99 99 99 101 96 89 92 84 81 84 77 80 83 91 90 88 82 91 96 94 93 92 91 92 94
58 58 58 58 58 58 57 57 62 63 68 82 86 80 91 89 97 100 103 100 94 94 93 91 88 83 86 83 72 78 80 82 80 87 89 86 84 89 93 92 93 93 91 92 92
58 58 57 58 58 57 62 80 79 78 83 86 89 87 93 100 102 96 100 95 94 91 81 88 81 78 85 86 86 85 82 81 84 89 84 75 83 85 90 91 90 90 92 92 90
58 57 57 57 57 57 64 83 89 92 80 91 93 94 98 99 88 93 100 87 87 80 87 85 79 88 89 87 85 83 81 80 84 87 84 76 80 85 85 84 87 87 88 90 92
57 57 57 57 57 63 85 90 99 98 80 88 94 92 93 96 88 89 94 91 86 83 85 81 86 90 86 83 82 82 80 80 79 84 86 82 69 63 67 69 68 87 87 88 89
56 56 56 55 67 88 90 97 101 98 71 79 84 90 94 94 86 98 98 93 88 83 86 85 90 86 84 83 85 77 86 83 81 78 70 83 61 56 56 56 59 72 84 85 86
56 56 56 55 74 82 94 100 99 90 55 82 85 100 95 87 90 91 100 93 83 85 86 82 83 83 82 84 86 79 86 83 82 77 76 77 69 60 65 56 72 83 84 84 85
56 56 55 73 71 86 98 99 92 68 57 78 87 84 84 87 89 92 90 95 93 84 87 86 93 89 86 88 87 88 83 82 81 78 66 73 72 62 61 67 78 84 85 85 84
55 55 56 74 80 96 98 89 68 61 84 76 79 84 84 82 84 84 82 79 77 72 74 82 83 89 89 82 87 84 76 66 63 62 63 76 72 68 71 75 84 83 84 85 85
54 54 63 80 93 93 89 76 59 75 78 87 84 83 78 83 83 82 79 76 83 82 77 73 70 83 88 83 79 80 77 67 56 59 62 77 67 70 79 85 88 88 86 85 84
53 80 84 88 88 88 77 64 68 76 84 82 83 77 78 83 83 80 79 78 83 84 73 74 73 86 86 87 85 78 73 82 70 73 68 73 74 81 85 85 86 86 86 85 86
62 70 82 97 94 84 72 61 75 85 84 85 75 80 74 79 78 78 78 84 84 87 88 79 70 82 85 86 86 81 84 70 72 59 57 62 66 69 77 80 84 85 85 85 88
65 74 91 98 91 78 65 70 79 87 86 78 76 77 79 78 80 78 79 85 87 85 87 83 75 75 82 77 76 78 75 76 74 69 60 59 66 81 80 84 84 87 89 87 88
74 69 90 94 73 76 72 76 71 84 86 82 82 80 79 81 78 78 78 82 89 87 78 83 75 68 74 84 86 82 76 75 66 64 69 66 66 86 86 87 87 87 90 91 88
69 77 92 88 66 71 78 80 84 80 80 80 78 82 84 78 73 80 79 83 86 84 78 79 72 63 66 76 81 75 78 77 75 72 63 60 65 87 85 85 87 86 89 89 89
70 69 80 81 80 74 72 76 75 84 82 83 81 83 80 76 81 76 76 80 83 83 68 73 72 67 62 63 72 71 75 77 73 64 65 67 71 78 82 82 85 86 87 89 89
71 71 78 71 74 74 75 76 75 74 81 82 77 77 76 71 75 75 79 78 81 69 78 76 66 71 73 76 76 75 74 75 72 72 66 70 71 77 80 82 84 86 86 85 86
65 70 74 73 76 74 69 72 73 77 78 74 73 78 78 73 75 73 78 77 75 78 75 76 65 69 66 74 74 71 74 75 75 74 73 73 72 83 85 86 84 83 83 82 83
77 80 72 66 73 71 73 74 74 79 80 81 77 77 76 77 79 79 81 80 79 76 72 71 68 63 59 70 70 64 71 74 75 76 74 67 75 82 80 81 81 81 82 81 82
MSLP
1018.52 1018.22 1018.01 1017.60 1017.35 1016.99 1016.48 1016.13 1015.77 1015.28 1015.03 1014.71 1014.36 1014.21 1013.98 1013.63 1012.83 1012.20 1010.27 1008.57 1008.23 1008.51 1008.89 1007.81 1007.87 1006.86 1005.98 1004.93 1004.13 1003.67 1003.03 1000.78 999.29 998.68 999.17 999.71 1000.64 1001.13 1001.73 1004.80 1005.04 1004.01 1006.13 1006.84 1007.48
1018.75 1018.45 1018.07 1017.71 1017.28 1016.79 1016.26 1015.88 1015.54 1015.14 1014.89 1014.54 1014.31 1014.16 1013.92 1013.59 1012.31 1010.06 1008.18 1008.13 1008.30 1008.58 1008.25 1007.14 1006.32 1005.84 1005.13 1004.35 1003.70 1003.36 1001.93 999.94 999.17 998.95 999.31 999.64 1000.29 1000.53 1001.46 1002.07 1002.93 1003.72 1004.56 1005.90 1006.44
1019.10 1018.48 1018.20 1017.53 1017.10 1016.53 1016.04 1015.64 1015.25 1014.94 1014.62 1014.34 1014.19 1013.99 1013.83 1013.47 1011.26 1007.77 1008.15 1008.14 1008.42 1008.66 1008.01 1006.79 1005.47 1005.20 1004.38 1003.52 1003.17 1002.63 1001.77 1000.37 999.95 1000.18 1000.24 1000.18 1000.18 1000.45 1000.90 1001.71 1003.58 1005.34 1005.13 1005.73 1005.58
1018.82 1018.40 1017.96 1017.36 1016.85 1016.43 1015.97 1015.50 1015.03 1014.68 1014.47 1014.16 1014.06 1013.90 1013.70 1012.77 1009.26 1007.71 1008.21 1008.26 1008.56 1008.38 1007.53 1006.04 1005.42 1004.75 1003.74 1002.92 1002.67 1002.36 1001.55 1001.19 1000.94 1000.70 1001.07 1000.97 1000.25 1000.46 1000.68 1000.97 1002.08 1004.66 1004.11 1005.14 1005.27
1018.72 1018.29 1017.77 1017.33 1016.87 1016.43 1015.80 1015.34 1014.90 1014.57 1014.22 1013.95 1013.93 1013.80 1013.34 1011.18 1007.87 1007.83 1008.10 1008.39 1008.32 1007.98 1006.93 1005.43 1004.77 1004.02 1003.12 1002.36 1002.18 1002.21 1001.80 1001.42 1001.43 1001.13 1001.33 1001.12 1000.87 1000.68 1000.47 1000.64 1001.55 1002.90 1003.36 1004.09 1004.80
1018.57 1018.22 1017.88 1017.32 1016.60 1016.16 1015.55 1015.05 1014.61 1014.33 1014.04 1013.81 1013.74 1013.79 1012.34 1008.70 1006.38 1007.19 1007.39 1007.83 1007.25 1006.83 1005.64 1004.91 1004.12 1003.84 1003.30 1002.50 1002.37 1002.00 1001.85 1001.59 1001.43 1001.36 1001.48 1001.32 1001.20 1000.83 1000.52 1000.72 1001.33 1001.91 1002.51 1002.40 1002.81
1018.65 1018.35 1017.68 1016.91 1016.38 1015.74 1015.15 1014.72 1014.26 1013.92 1013.63 1013.64 1013.57 1013.00 1010.20 1006.71 1005.86 1006.71 1006.64 1006.87 1006.46 1005.92 1005.12 1004.80 1004.75 1004.28 1003.35 1002.61 1002.49 1002.45 1002.19 1001.57 1001.35 1001.30 1001.25 1001.22 1001.20 1000.71 1000.55 1000.81 1001.14 1001.44 1001.68 1001.20 1002.40
1018.30 1018.21 1017.32 1016.72 1016.18 1015.55 1015.00 1014.52 1013.89 1013.44 1013.19 1013.41 1013.41 1012.17 1008.10 1005.80 1005.79 1006.05 1006.21 1005.99 1005.87 1005.68 1005.65 1005.30 1004.99 1004.52 1003.73 1002.74 1002.51 1002.23 1001.67 1000.66 1000.94 1001.25 1001.20 1001.89 1001.01 1000.07 1000.34 1000.76 1001.08 1001.11 1001.85 1002.09 1002.49
1018.29 1018.07 1017.16 1016.66 1015.96 1015.22 1014.55 1014.11 1013.29 1013.07 1013.09 1013.14 1012.65 1010.91 1006.69 1006.37 1005.82 1005.70 1005.89 1005.47 1005.63 1005.72 1005.69 1005.28 1005.27 1004.38 1003.19 1002.75 1001.83 1001.05 1000.13 1000.08 1000.50 1001.02 1001.06 1001.48 1000.67 1000.83 1001.33 1001.44 1001.41 1001.75 1002.90 1003.32 1003.29
1018.60 1017.77 1016.98 1016.46 1015.62 1014.87 1014.03 1013.71 1012.92 1013.05 1012.58 1011.64 1010.44 1009.31 1006.14 1005.28 1005.18 1005.43 1005.65 1005.49 1005.36 1005.18 1004.97 1004.92 1004.68 1003.68 1002.70 1001.84 1000.71 999.70 999.26 999.72 1000.23 1001.01 1001.05 1000.97 1001.20 1001.53 1001.89 1002.24 1001.99 1002.15 1002.86 1003.39 1003.93
1018.27 1017.47 1016.77 1016.04 1015.41 1014.79 1013.62 1012.65 1012.67 1011.63 1010.25 1007.83 1006.62 1005.83 1004.62 1004.24 1004.92 1005.25 1005.66 1005.79 1005.27 1004.79 1004.27 1003.86 1003.35 1002.12 1001.32 1001.16 1000.85 1000.23 1000.08 999.95 1000.58 1001.38 1001.83 1002.44 1002.11 1002.90 1003.36 1003.35 1003.37 1003.31 1003.17 1003.43 1004.20
1018.21 1017.51 1016.71 1015.71 1015.09 1014.43 1014.22 1011.06 1009.11 1008.52 1007.63 1006.63 1005.55 1004.81 1004.13 1004.48 1004.84 1004.99 1005.48 1005.32 1004.64 1003.93 1003.10 1002.61 1001.76 1001.26 1001.56 1001.67 1001.27 1000.82 1000.56 1000.37 1001.11 1001.80 1002.45 1003.49 1003.54 1004.33 1005.06 1005.84 1005.46 1005.07 1004.82 1004.48 1004.24
1018.20 1017.30 1016.56 1015.50 1014.44 1013.74 1011.51 1009.42 1008.39 1007.88 1007.06 1004.53 1004.52 1004.46 1004.20 1004.23 1004.14 1004.31 1004.97 1004.48 1003.80 1003.08 1002.40 1001.66 1001.19 1001.67 1001.94 1001.84 1001.38 1000.92 1000.63 1000.68 1001.34 1001.74 1002.47 1003.18 1005.86 1007.76 1008.21 1008.42 1009.87 1007.11 1006.53 1006.06 1005.70
1017.98 1017.28 1016.78 1015.49 1013.58 1011.37 1009.29 1008.53 1007.91 1007.85 1006.78 1004.10 1003.90 1003.64 1003.84 1004.03 1003.61 1003.68 1004.24 1003.85 1003.15 1002.46 1001.91 1001.29 1001.39 1001.83 1001.84 1001.30 1001.21 1000.65 1001.17 1001.63 1001.74 1002.00 1001.90 1002.93 1006.33 1009.55 1010.83 1012.35 1011.76 1010.08 1007.55 1007.12 1006.95
1017.86 1017.27 1016.58 1016.68 1014.00 1011.05 1008.61 1008.11 1008.25 1008.24 1005.71 1003.26 1003.20 1002.99 1003.24 1003.55 1002.89 1003.31 1003.77 1003.58 1003.00 1002.11 1002.07 1001.23 1001.64 1001.83 1001.32 1000.93 1001.63 1001.73 1001.87 1001.88 1001.84 1002.02 1002.38 1002.43 1004.66 1009.15 1010.65 1010.44 1008.15 1007.33 1007.41 1007.80 1007.99
1017.61 1017.05 1016.75 1014.13 1013.75 1010.61 1008.96 1008.39 1008.22 1007.62 1004.24 1002.66 1002.60 1002.83 1003.17 1003.17 1002.81 1003.05 1003.73 1003.77 1003.28 1002.88 1002.37 1001.65 1001.51 1001.44 1001.60 1001.64 1002.16 1002.36 1002.28 1002.06 1001.88 1001.71 1001.86 1002.49 1003.84 1007.20 1008.08 1007.53 1006.48 1006.48 1006.93 1007.72 1008.45
1017.23 1016.49 1016.87 1014.80 1011.36 1009.34 1009.01 1008.48 1007.41 1005.24 1002.52 1002.21 1002.09 1002.33 1002.45 1002.64 1002.69 1003.29 1003.67 1003.88 1003.29 1002.85 1002.26 1001.71 1001.91 1001.96 1002.30 1002.10 1002.15 1002.32 1002.41 1001.74 1001.89 1001.84 1001.91 1002.20 1002.96 1004.77 1005.75 1005.78 1005.26 1005.74 1006.67 1007.63 1008.24
1016.74 1015.03 1013.29 1012.38 1010.41 1010.09 1009.61 1008.37 1006.18 1003.30 1002.04 1001.29 1001.62 1002.14 1002.23 1002.21 1002.50 1003.04 1003.46 1003.30 1003.15 1002.70 1002.04 1001.71 1001.48 1001.80 1002.16 1002.39 1002.30 1001.89 1002.29 1002.11 1001.85 1002.05 1002.27 1002.15 1002.19 1003.94 1004.39 1004.63 1004.80 1005.38 1006.40 1007.43 1008.11
1016.21 1012.89 1011.25 1010.29 1010.45 1010.36 1009.63 1007.40 1004.81 1002.94 1001.71 1001.25 1001.32 1001.56 1001.70 1001.76 1002.02 1002.77 1002.85 1002.67 1002.37 1002.53 1002.32 1001.37 1001.60 1002.13 1002.60 1002.87 1003.07 1002.58 1002.66 1002.53 1002.73 1002.22 1001.99 1001.64 1002.51 1002.81 1003.25 1003.74 1004.26 1004.83 1005.65 1006.48 1007.23
1016.53 1013.55 1009.89 1008.37 1009.20 1009.69 1008.94 1006.84 1004.47 1003.05 1002.87 1001.62 1001.41 1001.31 1001.25 1001.36 1001.98 1002.26 1002.25 1002.01 1001.80 1002.39 1002.48 1002.37 1002.15 1002.37 1002.77 1003.48 1003.46 1003.36 1003.45 1003.23 1002.99 1002.80 1002.62 1003.05 1002.72 1002.36 1002.96 1003.09 1003.54 1004.00 1004.48 1005.41 1006.18
1016.14 1011.76 1007.83 1007.91 1009.23 1008.81 1007.56 1006.08 1004.47 1003.33 1003.12 1003.14 1002.19 1001.52 1001.29 1001.10 1001.64 1001.73 1001.73 1001.70 1001.98 1002.65 1003.25 1003.32 1003.53 1003.03 1003.19 1003.35 1002.95 1003.26 1003.37 1003.73 1004.04 1004.32 1003.74 1003.11 1002.51 1002.57 1002.53 1002.76 1002.96 1003.18 1003.29 1004.60 1005.46
1014.52 1010.61 1007.98 1008.11 1008.52 1007.55 1006.52 1005.76 1004.69 1003.32 1003.63 1003.54 1002.91 1002.34 1001.60 1001.29 1001.38 1001.79 1001.83 1001.59 1002.18 1003.19 1003.89 1004.24 1004.43 1004.01 1003.52 1003.19 1003.34 1003.71 1003.98 1004.29 1004.41 1004.46 1004.37 1003.97 1003.15 1002.49 1002.62 1002.71 1003.07 1003.43 1003.65 1003.99 1005.16
1014.06 1010.03 1007.75 1008.11 1007.45 1006.47 1005.91 1005.03 1003.98 1004.11 1004.04 1003.61 1003.34 1002.86 1002.22 1001.93 1001.92 1001.47 1002.61 1003.68 1003.64 1003.94 1004.96 1005.37 1005.16 1005.17 1004.63 1004.10 1004.08 1004.28 1004.52 1004.69 1004.94 1005.38 1005.34 1004.97 1003.92 1002.87 1003.04 1003.23 1003.31 1003.55 1003.85 1004.15 1004.78
1014.67 1010.01 1007.88 1007.68 1007.20 1006.44 1005.74 1004.50 1004.26 1004.36 1004.07 1003.80 1003.48 1003.30 1003.10 1002.92 1002.50 1002.51 1003.21 1004.25 1004.67 1005.04 1005.76 1006.35 1006.11 1005.86 1005.27 1005.49 1005.31 1004.63 1004.62 1004.54 1004.83 1005.38 1005.38 1004.78 1003.92 1003.14 1003.04 1003.26 1003.29 1003.67 1004.12 1004.47 1004.66
1014.47 1010.16 1008.19 1006.86 1006.76 1006.63 1005.91 1004.81 1004.07 1004.06 1004.68 1004.37 1004.39 1004.07 1003.73 1003.73 1003.22 1003.20 1003.46 1004.33 1005.04 1006.04 1006.31 1006.81 1006.78 1006.67 1006.10 1005.37 1005.06 1004.76 1004.64 1004.63 1004.65 1004.79 1004.74 1004.56 1004.13 1003.75 1003.51 1003.38 1003.61 1004.08 1004.52 1004.89 1005.21
1014.42 1011.37 1009.82 1008.20 1007.17 1006.48 1005.76 1005.18 1004.49 1003.86 1004.03 1004.72 1004.72 1004.49 1004.45 1004.22 1004.10 1003.85 1003.58 1004.16 1004.77 1006.01 1006.64 1007.03 1007.34 1007.28 1006.92 1006.40 1005.68 1005.09 1004.95 1004.71 1004.53 1004.68 1004.69 1004.37 1003.87 1003.77 1003.64 1003.65 1003.82 1004.33 1005.04 1005.50 1005.81
1013.80 1011.94 1011.48 1009.27 1007.73 1007.10 1005.71 1005.42 1005.22 1004.68 1004.47 1004.91 1005.30 1005.03 1004.88 1005.06 1005.09 1005.23 1005.23 1005.34 1005.35 1005.59 1006.53 1007.29 1007.64 1007.96 1007.42 1007.05 1006.23 1005.20 1004.66 1004.34 1004.16 1004.37 1004.54 1004.38 1004.11 1003.85 1003.90 1004.00 1004.43 1004.95 1005.56 1006.09 1006.67
Wind_Speed
15 15 15 15 14 14 14 14 14 14 14 14 14 14 13 14 17 8 10 1 6 11 3 7 9 14 12 13 14 6 10 14 15 4 12 5 6 8 6 17 16 12 19 18 19
15 15 15 15 15 14 15 15 14 13 13 13 13 13 12 12 9 15 3 7 9 7 9 9 10 9 11 12 7 11 12 15 11 10 10 7 6 9 5 13 10 15 25 21 20
14 15 15 15 16 15 15 16 15 13 13 13 12 12 11 12 10 4 5 7 4 5 12 15 9 6 13 10 10 11 14 15 8 7 11 11 8 8 6 5 16 22 18 19 19
15 17 16 17 17 16 16 16 15 14 13 13 12 11 9 7 3 7 8 8 4 7 12 9 10 9 13 9 11 8 12 11 10 4 4 11 11 2 7 4 14 28 20 18 17
16 17 18 17 16 16 15 15 15 15 14 12 11 9 6 6 6 11 10 7 8 9 15 9 10 11 11 4 5 8 14 3 8 11 4 11 7 12 9 11 11 24 21 17 15
15 17 17 17 16 16 15 15 14 14 13 11 9 7 7 11 12 14 10 10 11 14 12 12 7 9 10 7 5 4 10 8 6 9 12 8 11 11 9 8 12 6 19 20 20
15 16 17 18 17 17 17 15 13 14 12 10 7 7 9 9 12 12 12 11 12 10 8 4 10 10 13 9 7 7 10 12 9 8 6 5 11 13 11 8 2 11 6 14 20
17 18 18 19 18 17 17 16 14 14 10 8 6 6 9 4 3 9 10 11 9 8 6 9 8 11 13 11 7 11 16 13 10 2 7 3 14 22 13 5 9 2 12 4 10
18 19 18 20 19 19 17 18 13 10 7 6 7 8 10 6 9 9 10 8 6 7 11 8 7 13 13 11 13 15 13 10 10 2 4 7 7 13 7 6 6 12 11 2 8
18 19 19 21 20 19 20 11 5 9 8 10 10 9 11 10 11 10 9 7 5 11 11 10 9 14 12 12 10 8 4 4 2 9 8 10 4 11 4 3 6 5 8 6 6
20 21 21 21 21 19 15 6 6 7 11 11 9 15 8 7 10 9 8 8 12 9 13 15 13 15 12 10 11 10 10 6 7 6 7 17 7 9 8 8 6 7 3 8 11
20 22 22 23 21 19 7 7 8 12 10 20 16 12 1 8 8 11 14 11 10 14 16 15 14 9 7 5 6 4 7 6 5 4 5 13 6 12 15 15 10 9 10 11 10
20 22 23 26 27 6 9 13 7 8 7 12 13 13 9 9 10 14 15 16 12 14 9 13 10 9 5 4 10 6 8 7 5 6 6 9 12 14 14 17 19 9 11 9 8
21 22 22 28 5 10 10 2 8 7 6 10 13 9 10 12 11 12 13 17 8 16 12 10 10 5 8 11 9 3 5 5 6 7 10 10 4 6 11 17 27 33 11 11 10
22 21 22 8 12 9 7 6 8 3 7 17 13 7 10 15 11 11 14 16 14 12 3 2 9 7 12 4 3 8 6 8 9 9 11 13 4 10 17 9 9 12 13 11 11
22 21 20 2 7 15 15 10 5 6 8 12 13 12 17 16 8 14 10 13 11 19 11 14 3 6 10 6 1 10 9 11 11 12 11 2 7 8 6 9 6 14 13 12 12
25 25 11 9 8 14 9 8 7 11 13 10 15 13 15 14 11 11 14 12 10 5 10 6 8 7 2 7 9 8 10 10 4 3 13 4 7 7 14 10 5 13 15 11 10
27 31 9 10 9 12 8 8 10 13 16 10 12 14 14 13 13 13 14 14 15 14 9 10 11 10 7 8 11 8 6 8 9 3 6 9 5 10 16 14 12 12 12 13 9
29 8 8 10 12 8 7 10 10 16 12 4 14 17 16 13 9 12 15 13 15 11 10 8 5 10 4 2 8 9 5 10 8 14 8 4 11 16 15 13 13 14 14 11 10
10 7 11 13 9 5 8 15 16 8 9 6 10 12 14 15 10 12 14 15 10 9 7 9 1 7 9 2 8 9 12 7 4 5 5 10 3 11 11 11 11 12 13 13 9
5 7 5 9 7 7 10 16 18 13 4 5 11 9 13 12 14 13 10 9 6 9 5 7 4 2 5 5 11 8 8 3 5 5 8 7 5 9 7 6 4 5 8 15 11
6 7 8 7 9 9 12 19 15 6 6 10 11 14 15 15 13 13 12 5 10 3 4 8 3 8 11 5 5 5 7 13 5 5 7 7 9 9 3 1 4 4 8 8 12
6 10 7 8 11 11 16 21 11 7 15 9 12 12 10 11 11 9 11 6 5 6 3 6 3 7 13 10 6 5 8 11 7 4 9 10 10 1 7 2 3 4 8 3 7
6 6 7 7 11 17 16 17 12 10 13 12 10 12 12 11 11 4 13 6 4 6 6 4 6 9 11 3 8 8 10 11 4 6 10 13 16 17 3 8 6 6 7 10 7
6 7 6 5 11 15 15 17 14 14 9 10 8 14 8 9 15 8 15 11 5 4 1 2 8 13 15 18 15 13 13 15 15 14 14 14 17 16 15 15 10 6 7 10 11
7 7 11 13 10 9 14 13 14 12 10 14 10 14 13 11 12 11 7 9 8 10 7 6 5 10 15 18 19 18 17 21 18 17 20 20 19 16 14 11 12 8 9 10 10
8 9 5 10 10 10 11 12 15 13 3 6 12 13 13 4 10 8 8 6 8 2 8 7 5 8 14 16 19 16 16 18 15 14 15 16 16 13 12 10 5 6 5 8 8
Wind_Direction
356 348 337 334 326 321 324 322 316 316 311 309 311 307 308 314 304 228 252 228 178 162 186 234 215 244 245 248 242 268 267 252 259 258 155 101 122 222 81 149 216 94 145 186 151
350 345 336 329 324 323 324 320 314 313 308 308 306 306 312 324 281 260 217 105 135 159 217 198 206 216 232 225 218 242 237 263 10 30 41 52 1 51 305 173 164 114 117 134 151
340 344 331 333 327 327 325 319 314 312 309 306 306 313 314 310 273 109 158 128 144 223 265 280 272 219 240 239 213 227 264 309 8 23 356 349 289 62 275 47 89 27 108 144 150
347 341 332 334 331 327 322 315 312 309 304 305 308 308 312 265 324 97 142 112 143 260 267 264 256 221 250 223 232 251 263 298 312 121 275 262 301 298 283 79 156 158 159 155 148
344 338 332 329 327 322 320 311 307 301 298 301 301 309 288 234 239 134 130 135 191 225 245 216 221 239 261 229 254 240 277 294 270 297 286 275 303 299 297 74 110 148 137 143 151
341 335 326 325 328 322 317 308 302 294 290 292 296 305 245 254 90 146 166 165 211 227 237 247 290 343 298 288 254 338 276 305 259 248 241 254 257 248 268 82 118 134 145 166 158
340 326 325 330 326 324 319 308 300 293 286 282 283 268 259 282 138 167 178 192 221 247 269 323 317 291 309 247 232 284 258 236 224 246 262 264 267 259 264 123 315 168 215 189 144
341 325 329 328 325 322 316 306 298 294 280 266 260 262 274 85 275 186 185 202 217 251 322 296 267 286 281 302 262 241 242 244 123 257 181 198 272 234 213 138 225 203 12 84 130
336 323 328 325 324 320 318 305 296 299 258 238 231 234 260 130 215 194 201 200 203 231 242 275 275 270 264 240 240 223 241 169 147 106 154 203 248 61 36 298 279 103 120 146 137
329 326 328 322 324 322 317 285 326 288 222 223 258 259 226 209 187 186 209 290 217 234 234 223 240 242 218 235 269 236 226 114 80 148 221 197 25 74 102 269 274 143 152 159 190
331 328 327 322 322 326 322 222 207 202 230 224 208 239 150 120 132 195 185 224 249 244 241 199 231 233 201 14 341 351 332 71 94 76 338 355 75 69 24 7 22 9 0 192 166
332 327 324 323 318 321 282 260 39 324 287 219 263 240 216 134 179 192 191 221 212 230 220 220 232 54 36 348 295 304 243 218 109 127 276 179 236 65 48 23 39 42 31 8 151
329 328 326 321 311 273 243 292 327 311 271 238 209 219 207 198 194 189 190 225 231 237 230 263 79 93 235 178 244 222 313 43 306 149 232 256 58 27 338 1 338 1 69 48 52
329 327 326 329 295 334 261 302 300 13 270 183 198 219 178 219 224 192 195 233 229 259 223 275 93 176 223 243 281 242 66 329 283 258 283 173 134 16 61 50 279 266 83 73 67
323 325 321 315 304 287 10 320 354 286 273 147 175 207 181 214 150 196 188 243 270 263 224 180 148 223 241 98 339 31 335 285 291 284 266 245 156 156 146 185 281 109 105 92 71
318 321 331 257 215 259 289 298 264 236 254 174 152 178 189 219 183 163 200 253 290 287 229 269 16 272 20 67 318 329 275 251 255 254 237 102 301 164 194 193 194 116 93 95 102
316 307 297 293 254 341 321 271 226 242 127 159 172 186 206 197 197 162 196 205 235 222 218 213 191 227 314 272 195 223 271 269 248 329 308 144 271 135 213 208 164 117 115 111 113
318 306 246 228 253 283 280 244 243 228 240 139 173 182 197 191 198 176 197 209 233 242 247 222 198 181 137 271 333 283 342 304 314 325 196 203 120 138 182 194 113 111 117 134 133
310 303 244 239 221 240 256 231 221 264 333 169 186 185 207 183 198 186 219 225 206 233 260 260 160 100 83 345 310 316 265 346 313 267 264 143 63 146 144 144 149 146 147 154 151
321 285 259 221 164 213 236 246 253 310 330 316 225 200 211 193 211 188 202 221 200 199 287 344 219 149 133 232 251 277 338 294 276 300 269 5 184 113 148 162 164 169 174 153 161
267 261 129 146 183 214 231 239 246 265 304 284 277 252 237 211 188 219 232 201 136 166 271 289 296 194 162 216 259 185 233 217 329 309 327 326 95 155 153 164 167 210 200 153 172
281 268 140 189 213 225 233 240 270 291 177 258 285 293 279 246 204 220 220 336 159 157 215 247 296 271 261 54 21 314 324 316 303 290 327 320 299 75 107 53 210 240 283 113 110
278 269 164 210 233 232 227 250 247 240 258 236 250 262 302 289 281 207 121 69 102 182 25 1 222 255 273 241 207 272 287 262 268 305 286 295 293 344 105 228 308 289 294 144 162
277 258 219 202 249 271 295 231 233 215 265 264 260 251 246 272 277 262 126 115 104 52 71 15 286 275 278 76 254 251 230 261 245 261 277 273 289 306 240 226 236 229 246 257 264
249 260 336 239 217 241 258 279 211 220 213 259 256 269 248 232 258 220 266 118 128 97 71 224 249 261 271 285 287 285 289 280 274 264 256 259 262 275 295 313 330 1 349 332 319
290 339 348 295 301 289 238 253 278 242 191 222 221 252 243 256 252 269 241 188 189 159 217 177 263 281 284 288 291 289 283 282 271 267 282 283 280 286 295 289 292 2 350 323 325
282 303 261 294 272 267 265 221 253 259 143 270 321 226 252 278 19 23 18 7 28 32 175 239 241 261 267 277 278 271 271 274 286 279 275 278 292 306 311 309 346 339 338 317 317